1483498800.97,41569,9.0,71788.5,-10.05,-11.77,-11.59,0,*67
1483498802.24,41570,9.0,71792.5,-10.03,-11.67,-11.45,0,*65
1483498803.48,41571,9.0,71798.5,-10.05,-11.67,-11.45,0,*62
1483498804.77,41572,9.0,71792.0,-10.03,-11.67,-11.55,0,*66
1483498806.07,41573,9.0,71778.5,-10.03,-11.67,-11.67,0,*66
1483498807.35,41574,9.0,71776.5,-10.03,-11.81,-11.81,0,*61
1483498808.64,41575,9.0,71784.8,-10.03,-11.85,-11.85,0,*60
1483498809.9,41576,9.0,71780.0,-10.03,-12.03,-11.89,0,*62
1483498811.16,41577,9.0,71790.3,-10.01,-11.97,-11.85,0,*63
1483498812.43,41578,9.0,71786.8,-10.01,-11.97,-11.93,0,*6B
1483498813.68,41579,9.0,71802.5,-10.01,-12.21,-11.97,0,*60
1483498814.89,41580,9.0,71816.5,-10.05,-12.43,-12.21,0,*68
1483498816.14,41581,9.0,71820.0,-10.01,-12.39,-12.07,0,*64
1483498817.41,41582,9.0,71816.5,-10.01,-12.53,-12.11,0,*6C
1483498818.65,41583,9.0,71832.5,-10.01,-12.65,-12.21,0,*6B
1483498819.92,41584,9.0,71826.8,-10.01,-12.71,-12.07,0,*6D
1483498821.19,41585,9.0,71824.3,-10.01,-12.65,-11.93,0,*67
1483498822.47,41586,9.0,71812.8,-10.03,-12.83,-11.85,0,*69
1483498823.73,41587,9.0,71782.0,-10.03,-12.39,-11.55,0,*64
1483498825.02,41588,9.0,71750.3,-10.03,-12.11,-11.59,0,*6D
1483498826.31,41589,9.0,71770.5,-10.03,-11.89,-11.55,0,*62
1483498827.6,41590,9.0,71766.5,-10.03,-11.85,-11.55,0,*66
1483498828.87,41591,9.0,71778.0,-10.03,-11.59,-11.45,0,*67
1483498830.13,41592,9.0,71778.3,-10.05,-11.77,-11.59,0,*63
1483498831.42,41593,9.0,71770.0,-10.03,-11.73,-11.67,0,*6D
1483498832.71,41594,9.0,71778.3,-10.03,-11.73,-11.67,0,*6A
1483498833.99,41595,9.0,71780.0,-10.03,-11.81,-11.73,0,*63
1483498835.28,41596,9.0,71784.8,-10.03,-11.89,-11.81,0,*65
1483498836.54,41597,9.0,71792.0,-10.03,-12.03,-11.73,0,*68
1483498837.8,41598,9.0,71796.3,-10.03,-12.03,-11.81,0,*6A
1483498839.06,41599,9.0,71826.5,-10.01,-12.07,-11.77,0,*64
1483498840.36,41600,9.0,71820.3,-10.03,-12.15,-11.89,0,*67
1483498841.6,41601,9.0,71810.8,-10.01,-12.25,-11.97,0,*68
1483498842.85,41602,9.0,71788.3,-10.01,-12.25,-12.07,0,*61
1483498844.09,41603,9.0,71784.5,-10.01,-12.39,-12.11,0,*6A
1483498845.3,41604,9.0,71780.0,-10.01,-12.47,-12.25,0,*63
1483498846.55,41605,9.0,71782.3,-10.01,-12.53,-12.39,0,*6A
1483498847.81,41606,9.0,71784.8,-10.01,-12.61,-12.35,0,*64
1483498849.06,41607,9.0,71792.3,-10.01,-12.53,-12.21,0,*61
1483498850.3,41608,9.0,71782.5,-10.01,-12.53,-12.25,0,*6A
1483498851.55,41609,9.0,71786.3,-10.01,-12.47,-12.35,0,*6F
1483498852.79,41610,9.0,71794.8,-10.01,-12.35,-12.39,0,*6E
1483498854.04,41611,9.0,71790.0,-10.01,-12.47,-12.53,0,*66
1483498855.3,41612,9.0,71790.5,-10.01,-12.53,-12.65,0,*65
1483498856.57,41613,9.0,71806.0,-10.01,-12.61,-12.79,0,*68
1483498857.79,41614,9.0,71816.0,-10.01,-12.93,-12.97,0,*62
1483498859.01,41615,9.0,71814.8,-10.01,-13.23,-13.11,0,*66
1483498860.25,41616,9.0,71792.5,-9.99,-13.51,-13.19,0,*51
1483498861.5,41617,9.0,71822.5,-10.01,-13.51,-12.79,0,*6E
1483498862.78,41618,9.0,71818.0,-9.99,-13.37,-12.65,0,*55
1483498864.05,41619,9.0,71810.8,-10.01,-13.37,-12.61,0,*69
1483498865.29,41620,9.0,71798.5,-10.01,-13.33,-12.47,0,*63
1483498866.51,41621,9.0,71790.8,-10.01,-13.07,-12.21,0,*65
1483498867.77,41622,9.0,71782.8,-10.01,-12.71,-11.97,0,*68
1483498869.01,41623,9.0,71774.8,-10.01,-12.47,-11.81,0,*6B
1483498870.28,41624,9.0,71788.5,-10.01,-12.35,-11.67,0,*61
1483498871.55,41625,9.0,71796.8,-10.01,-12.07,-11.67,0,*61
1483498872.82,41626,9.0,71814.0,-10.01,-11.97,-11.55,0,*69
1483498874.06,41627,9.0,71824.5,-10.01,-11.81,-11.41,0,*6A
1483498875.3,41628,9.0,71832.8,-10.01,-11.77,-11.41,0,*6C
1483498876.57,41629,9.0,71848.8,-10.01,-11.67,-11.29,0,*62
1483498877.81,41630,9.0,71852.5,-10.01,-11.55,-11.23,0,*61
1483498879.05,41631,9.0,71850.5,-10.01,-11.37,-11.23,0,*64
1483498880.29,41632,9.0,71848.3,-10.01,-11.37,-11.23,0,*67
1483498881.55,41633,9.0,71842.0,-9.99,-11.29,-11.15,0,*55
1483498882.79,41634,9.0,71834.5,-10.01,-11.29,-11.15,0,*6B
1483498884.03,41635,9.0,71840.3,-9.99,-11.23,-11.01,0,*5C
1483498885.26,41636,9.0,71840.0,-9.99,-11.15,-11.01,0,*5A
1483498886.5,41637,9.0,71834.3,-9.99,-11.15,-11.11,0,*5A
1483498887.74,41638,9.0,71836.5,-10.01,-11.29,-11.11,0,*63
1483498888.96,41639,9.0,71832.5,-10.01,-11.23,-11.11,0,*68
1483498890.22,41640,9.0,71832.5,-9.99,-11.29,-11.15,0,*51
1483498891.46,41641,9.0,71816.8,-10.01,-11.37,-11.23,0,*63
1483498892.72,41642,9.0,71800.8,-10.01,-11.37,-11.29,0,*6A
1483498893.98,41643,9.0,71810.8,-9.99,-11.41,-11.37,0,*5C
1483498895.25,41644,9.0,71824.3,-10.01,-11.37,-11.29,0,*6C
1483498896.49,41645,9.0,71828.0,-10.01,-11.29,-11.15,0,*6D
1483498897.74,41646,9.0,71828.5,-10.01,-11.29,-11.23,0,*6B
1483498899.0,41647,9.0,71822.3,-9.99,-11.29,-11.23,0,*53
1483498900.26,41648,9.0,71816.3,-9.99,-11.29,-11.15,0,*59
1483498901.52,41649,9.0,71832.5,-9.99,-11.41,-11.37,0,*56
1483498902.78,41650,9.0,71836.5,-9.99,-11.41,-11.37,0,*5E
1483498904.04,41651,9.0,71834.5,-10.01,-11.51,-11.37,0,*67
1483498905.28,41652,9.0,71828.5,-10.01,-11.41,-11.37,0,*65
1483498906.53,41653,9.0,71828.5,-10.01,-11.41,-11.29,0,*6B
1483498907.82,41654,9.06,71834.3,-9.99,-11.29,-11.29,0,*5B
1483498909.1,41655,9.0,71832.0,-9.99,-11.37,-11.37,0,*5A
1483498910.34,41656,9.0,71830.5,-10.01,-11.41,-11.29,0,*6E
1483498911.6,41657,9.0,71836.0,-10.01,-11.51,-11.37,0,*61
1483498912.85,41658,9.0,71846.5,-10.01,-11.41,-11.29,0,*60
1483498914.11,41659,9.0,71852.5,-10.01,-11.51,-11.37,0,*6F
1483498915.39,41660,9.06,71858.8,-9.99,-11.51,-11.29,0,*53
1483498916.67,41661,9.0,71854.0,-9.99,-11.37,-11.37,0,*5D
1483498917.94,41662,9.0,71846.5,-10.01,-11.55,-11.55,0,*67
1483498919.21,41663,9.0,71846.0,-10.01,-11.63,-11.55,0,*63
1483498920.48,41664,9.0,71856.5,-10.01,-11.55,-11.55,0,*61
1483498921.77,41665,9.0,71856.8,-9.99,-11.63,-11.55,0,*5C
1483498923.04,41666,9.0,71852.8,-10.01,-11.63,-11.55,0,*66
1483498924.3,41667,9.0,71844.0,-9.99,-11.63,-11.41,0,*5B
1483498925.56,41668,9.0,71836.5,-9.99,-11.63,-11.41,0,*54
1483498926.85,41669,9.0,71826.3,-9.99,-11.63,-11.51,0,*54
1483498928.12,41670,9.0,71812.3,-10.01,-11.63,-11.55,0,*61
1483498929.4,41671,9.0,71798.0,-9.99,-11.67,-11.51,0,*59
1483498930.66,41672,9.06,71796.3,-9.99,-11.67,-11.41,0,*5B
1483498931.95,41673,9.0,71798.5,-9.99,-11.67,-11.51,0,*5B
1483498933.21,41674,9.0,71796.0,-9.99,-11.67,-11.41,0,*5D
1483498934.49,41675,9.0,71798.0,-9.99,-11.67,-11.51,0,*5D
1483498935.77,41676,9.0,71788.3,-9.99,-11.67,-11.37,0,*5E
1483498937.05,41677,9.0,71790.8,-9.99,-11.77,-11.51,0,*5E
1483498938.3,41678,9.06,71796.8,-10.01,-11.77,-11.41,0,*69
1483498939.58,41679,9.06,71826.3,-9.99,-11.77,-11.55,0,*54
1483498940.84,41680,9.0,71826.5,-9.99,-11.67,-11.41,0,*56
1483498942.09,41681,9.0,71824.8,-10.01,-11.63,-11.41,0,*6A
1483498943.37,41682,9.0,71832.3,-9.99,-11.55,-11.37,0,*54
1483498944.63,41683,9.0,71826.3,-9.99,-11.55,-11.41,0,*54
1483498945.9,41684,9.0,71836.8,-9.99,-11.55,-11.41,0,*53
1483498947.17,41685,9.0,71844.5,-9.99,-11.51,-11.37,0,*57
1483498948.41,41686,9.0,71850.3,-9.99,-11.41,-11.41,0,*54
1483498949.67,41687,9.0,71854.0,-9.99,-11.51,-11.41,0,*54
1483498950.93,41688,9.0,71854.3,-9.99,-11.55,-11.41,0,*5F
1483498952.22,41689,9.0,71840.3,-9.99,-11.63,-11.55,0,*5E
1483498953.51,41690,9.0,71822.3,-9.99,-11.63,-11.63,0,*53
1483498954.79,41691,9.0,71818.0,-9.99,-11.67,-11.77,0,*53
1483498956.07,41692,9.0,71806.3,-9.99,-11.81,-11.81,0,*51
1483498957.35,41693,9.06,71792.5,-9.99,-11.81,-11.77,0,*59
1483498958.63,41694,9.0,71774.0,-9.99,-11.97,-11.85,0,*54
1483498959.91,41695,9.0,71774.3,-9.99,-12.11,-11.93,0,*5F
1483498961.2,41696,9.06,71782.5,-9.99,-12.11,-11.97,0,*58
1483498962.48,41697,9.0,71784.8,-9.99,-12.11,-11.85,0,*5A
1483498963.77,41698,9.0,71780.8,-9.99,-12.07,-11.85,0,*52
1483498965.03,41699,9.06,71786.0,-10.01,-12.11,-11.85,0,*6D
1483498966.31,41700,9.0,71796.8,-9.99,-11.97,-11.81,0,*5C
1483498967.6,41701,9.0,71800.0,-9.99,-11.93,-11.81,0,*59
1483498968.88,41702,9.0,71800.0,-9.99,-11.93,-11.77,0,*53
1483498970.16,41703,9.0,71822.3,-9.99,-11.97,-11.77,0,*56
1483498971.45,41704,9.06,71840.5,-9.99,-11.93,-11.67,0,*54
1483498972.74,41705,9.0,71844.3,-9.99,-11.93,-11.77,0,*54
1483498974.02,41706,9.0,71846.8,-9.99,-11.93,-11.81,0,*5E
1483498975.3,41707,9.0,71846.3,-9.99,-11.81,-11.77,0,*55
1483498976.58,41708,9.0,71846.5,-9.99,-11.81,-11.77,0,*5A
1483498977.86,41709,9.0,71836.3,-9.99,-11.77,-11.77,0,*52
1483498979.14,41710,9.0,71838.3,-9.99,-11.85,-11.93,0,*5D
1483498980.43,41711,9.0,71840.3,-9.99,-12.07,-11.85,0,*52
1483498981.71,41712,9.0,71836.3,-9.99,-11.97,-11.85,0,*5B
1483498982.99,41713,9.0,71832.5,-9.99,-11.97,-11.85,0,*5A
1483498984.28,41714,9.0,71834.3,-9.99,-11.93,-11.81,0,*5D
1483498985.56,41715,9.0,71832.5,-9.99,-11.93,-11.77,0,*55
1483498986.84,41716,9.0,71824.8,-9.99,-11.85,-11.81,0,*58
1483498988.12,41717,9.0,71816.5,-9.99,-11.81,-11.85,0,*59
1483498989.41,41718,9.06,71816.0,-9.99,-11.85,-11.93,0,*55
1483498990.67,41719,9.0,71814.3,-10.01,-11.97,-12.11,0,*67
1483498991.94,41720,9.06,71830.3,-9.99,-12.21,-12.35,0,*5C
1483498993.2,41721,9.0,71838.3,-9.99,-12.35,-12.25,0,*59
1483498994.43,41722,9.0,71838.0,-9.99,-12.39,-12.39,0,*5B
1483498995.72,41723,9.0,71832.5,-9.99,-12.53,-12.53,0,*5A
1483498997.0,41724,9.0,71850.3,-9.99,-12.53,-12.65,0,*58
1483498998.24,41725,9.0,71850.5,-9.97,-12.47,-12.75,0,*53
1483498999.5,41726,9.0,71836.5,-9.97,-12.75,-13.29,0,*59
1483499000.73,41727,9.0,71854.5,-9.99,-13.07,-13.47,0,*5A
1483499001.99,41728,9.06,71876.8,-9.99,-13.51,-13.83,0,*5E
1483499003.26,41729,9.0,71848.5,-9.99,-13.79,-13.83,0,*55
1483499004.53,41730,9.06,71850.8,-9.99,-13.97,-13.65,0,*55
1483499005.78,41731,9.06,71836.5,-9.99,-13.83,-13.47,0,*51
1483499007.06,41732,9.0,71830.5,-9.99,-13.79,-13.37,0,*50
1483499008.33,41733,9.0,71820.0,-9.99,-13.97,-13.65,0,*56
1483499009.56,41734,9.06,71822.8,-9.99,-14.23,-14.19,0,*55
1483499010.78,41735,9.0,71814.3,-9.99,-14.69,-14.11,0,*52
1483499012.0,41736,9.0,71810.3,-9.97,-15.01,-13.93,0,*5D
1483499013.25,41737,9.06,71808.0,-9.99,-14.69,-13.37,0,*53
1483499014.52,41738,9.0,71790.3,-9.99,-14.23,-12.79,0,*59
1483499015.77,41739,9.06,71794.8,-9.99,-13.65,-12.61,0,*54
1483499017.01,41740,9.06,71796.8,-9.99,-13.07,-12.21,0,*5A
1483499018.29,41741,9.06,71804.0,-9.99,-12.61,-12.11,0,*59
1483499019.58,41742,9.0,71802.3,-9.99,-12.53,-12.11,0,*5B
1483499020.81,41743,9.0,71788.5,-9.99,-12.39,-12.21,0,*55
1483499022.02,41744,9.0,71806.8,-9.97,-12.43,-12.03,0,*51
1483499023.25,41745,9.0,71804.3,-9.97,-12.43,-11.93,0,*5A
1483499024.52,41746,9.0,71802.0,-9.97,-12.35,-11.93,0,*58
1483499025.76,41747,9.06,71788.5,-9.97,-12.29,-11.77,0,*5E
1483499027.01,41748,9.06,71802.5,-9.97,-11.89,-11.59,0,*54
1483499028.3,41749,9.06,71804.3,-9.99,-11.85,-11.55,0,*5B
1483499029.58,41750,9.0,71798.8,-9.99,-11.81,-11.63,0,*52
1483499030.84,41751,9.0,71796.8,-9.97,-11.81,-11.63,0,*5D
1483499032.1,41752,9.0,71786.5,-9.97,-11.81,-11.73,0,*5F
1483499033.36,41753,9.06,71794.3,-9.97,-11.89,-11.63,0,*57
1483499034.63,41754,9.0,71776.8,-9.97,-11.77,-11.63,0,*51
1483499035.91,41755,9.0,71788.3,-9.95,-11.81,-11.63,0,*5B
1483499037.17,41756,9.0,71778.8,-9.97,-11.81,-11.73,0,*5B
1483499038.42,41757,9.0,71778.3,-9.97,-11.81,-11.73,0,*5A
1483499039.68,41758,9.06,71762.8,-9.97,-11.81,-11.73,0,*55
1483499040.94,41759,9.06,71778.3,-9.97,-11.89,-11.89,0,*59
1483499042.2,41760,9.06,71774.5,-9.95,-11.89,-12.03,0,*50
1483499043.43,41761,9.06,71782.3,-9.97,-12.03,-12.15,0,*55
1483499044.69,41762,9.0,71792.5,-9.99,-12.25,-12.53,0,*5E
1483499045.96,41763,9.06,71802.5,-9.99,-12.39,-12.71,0,*52
1483499047.21,41764,9.0,71810.8,-9.99,-12.65,-13.07,0,*5C
1483499048.45,41765,9.0,71816.0,-9.99,-13.07,-13.19,0,*57
1483499049.71,41766,9.0,71830.3,-9.97,-13.29,-13.29,0,*55
1483499050.94,41767,9.0,71830.5,-9.97,-13.43,-13.29,0,*58
1483499052.18,41768,9.0,71844.5,-9.97,-13.55,-13.33,0,*5B
1483499053.38,41769,9.0,71818.3,-9.97,-13.65,-13.43,0,*5E
1483499054.62,41770,9.06,71840.5,-9.97,-13.73,-13.33,0,*56
1483499055.85,41771,9.0,71846.0,-9.97,-13.65,-13.33,0,*50
1483499057.08,41772,9.0,71870.0,-9.99,-13.69,-13.47,0,*52
1483499058.36,41773,9.0,71850.5,-9.99,-13.79,-13.37,0,*55
1483499059.59,41774,9.0,71820.8,-9.99,-13.93,-13.23,0,*53
1483499060.79,41775,9.06,71822.5,-9.97,-13.65,-13.07,0,*53
1483499062.02,41776,9.06,71810.3,-9.99,-13.65,-13.07,0,*5E
1483499063.26,41777,9.06,71804.5,-9.97,-13.47,-12.79,0,*59
1483499064.48,41778,9.06,71800.8,-9.97,-13.15,-12.65,0,*5C
1483499065.72,41779,9.0,71804.8,-9.97,-12.93,-12.57,0,*53
1483499066.95,41780,9.06,71816.5,-9.97,-12.65,-12.47,0,*5D
1483499068.19,41781,9.06,71832.8,-9.97,-12.65,-12.47,0,*5C
1483499069.42,41782,9.0,71848.5,-9.97,-12.57,-12.47,0,*5E
1483499070.68,41783,9.0,71850.8,-9.95,-12.57,-12.47,0,*5D
1483499071.94,41784,9.0,71848.5,-9.97,-12.75,-12.57,0,*59
1483499073.21,41785,9.0,71848.3,-9.97,-12.75,-12.75,0,*58
1483499074.47,41786,9.06,71862.0,-9.97,-12.75,-12.61,0,*5E
1483499075.72,41787,9.06,71856.5,-9.97,-12.57,-12.65,0,*5B
1483499076.99,41788,9.0,71838.0,-9.97,-12.75,-12.75,0,*55
1483499078.22,41789,9.06,71842.8,-9.97,-12.89,-12.65,0,*56
1483499079.48,41790,9.0,71824.3,-9.97,-12.79,-12.61,0,*55
1483499080.74,41791,9.06,71844.0,-9.97,-13.01,-12.61,0,*5A
1483499082.0,41792,9.0,71856.3,-9.95,-12.93,-12.57,0,*54
1483499083.28,41793,9.0,71818.5,-9.95,-12.75,-12.15,0,*5B
1483499084.53,41794,9.0,71812.3,-9.97,-12.57,-11.81,0,*50
1483499085.8,41795,9.0,71812.3,-9.97,-12.07,-11.63,0,*58
1483499087.07,41796,9.06,71814.3,-9.97,-11.93,-11.73,0,*54
1483499088.33,41797,9.06,71818.3,-9.97,-11.89,-11.63,0,*5F
1483499089.6,41798,9.0,71824.0,-9.97,-11.89,-11.63,0,*50
1483499090.88,41799,9.0,71822.8,-9.95,-11.77,-11.63,0,*52
1483499092.14,41800,9.06,71826.0,-9.95,-11.73,-11.45,0,*5D
1483499093.42,41801,9.06,71816.3,-9.95,-11.63,-11.37,0,*58
1483499094.68,41802,9.06,71822.5,-9.95,-11.63,-11.45,0,*5E
1483499095.93,41803,9.06,71804.5,-9.97,-11.59,-11.37,0,*51
1483499097.19,41804,9.06,71800.0,-9.95,-11.59,-11.45,0,*51
1483499098.48,41805,9.06,71754.8,-9.95,-11.63,-11.59,0,*54
1483499099.74,41806,9.06,71766.8,-9.97,-11.63,-11.51,0,*5D
1483499100.99,41807,9.06,71798.3,-9.95,-11.63,-11.45,0,*5B
1483499102.27,41808,9.0,71820.3,-9.95,-11.51,-11.51,0,*50
1483499103.51,41809,9.0,71824.3,-9.95,-11.45,-11.45,0,*51
1483499104.79,41810,9.0,71824.0,-9.95,-11.51,-11.59,0,*51
1483499106.07,41811,9.06,71820.0,-9.95,-11.59,-11.63,0,*51
1483499107.35,41812,9.06,71826.8,-9.95,-11.81,-11.77,0,*52
1483499108.63,41813,9.06,71832.5,-9.95,-11.89,-11.77,0,*5B
1483499109.88,41814,9.0,71832.5,-9.95,-12.03,-11.81,0,*54
1483499111.14,41815,9.0,71836.8,-9.97,-11.93,-11.77,0,*54
1483499112.39,41816,9.0,71844.5,-9.95,-12.03,-11.81,0,*56
1483499113.65,41817,9.0,71852.8,-9.95,-12.29,-11.89,0,*57
1483499114.93,41818,9.0,71848.8,-9.95,-12.35,-11.81,0,*5D
1483499116.19,41819,9.0,71844.0,-9.95,-12.43,-11.63,0,*51
1483499117.44,41820,9.0,71836.0,-9.95,-12.29,-11.59,0,*5E
1483499118.72,41821,9.06,71824.3,-9.95,-12.07,-11.33,0,*5F
1483499119.98,41822,9.06,71806.5,-9.95,-11.77,-11.23,0,*59
1483499121.23,41823,9.0,71802.3,-9.95,-11.59,-11.11,0,*55
1483499122.49,41824,9.0,71818.3,-9.95,-11.37,-11.11,0,*5A
1483499123.74,41825,9.06,71826.0,-9.95,-11.37,-11.11,0,*5B
1483499124.99,41826,9.0,71834.8,-9.95,-11.33,-11.11,0,*5C
1483499126.25,41827,9.06,71842.5,-9.95,-11.33,-11.11,0,*5D
1483499127.5,41828,9.06,71840.3,-9.95,-11.33,-11.19,0,*5A
1483499128.73,41829,9.06,71844.8,-9.91,-11.19,-11.15,0,*5B
1483499129.99,41830,9.06,71848.0,-9.91,-11.29,-11.15,0,*50
1483499131.25,41831,9.06,71848.3,-9.91,-11.19,-11.07,0,*51
1483499132.52,41832,9.06,71862.8,-9.89,-11.29,-11.07,0,*58
1483499133.77,41833,9.0,71854.3,-9.91,-11.19,-11.07,0,*53
1483499135.0,41834,9.06,71858.3,-9.91,-11.19,-11.15,0,*57
1483499136.23,41835,9.0,71846.8,-9.91,-11.19,-11.15,0,*56
1483499137.52,41836,9.06,71832.3,-9.91,-11.29,-11.07,0,*55
1483499138.75,41837,9.06,71834.0,-9.91,-11.19,-11.19,0,*58
1483499140.0,41838,9.06,71834.3,-9.95,-11.33,-11.19,0,*5B
1483499141.23,41839,9.06,71828.5,-9.95,-11.23,-11.19,0,*5B
1483499142.44,41840,9.06,71822.5,-9.97,-11.23,-11.19,0,*57
1483499143.67,41841,9.0,71828.5,-9.95,-11.19,-11.19,0,*5D
1483499144.89,41842,9.0,71830.0,-9.95,-11.19,-11.19,0,*5E
1483499146.15,41843,9.06,71834.5,-9.91,-11.33,-11.19,0,*53
1483499147.39,41844,9.06,71830.0,-9.95,-11.45,-11.45,0,*58
1483499148.66,41845,9.0,71810.0,-9.95,-11.51,-11.51,0,*59
1483499149.92,41846,9.06,71804.5,-9.95,-11.45,-11.51,0,*5F
1483499151.2,41847,9.06,71814.0,-9.95,-11.51,-11.59,0,*53
1483499152.48,41848,9.06,71808.0,-9.95,-11.59,-11.59,0,*54
1483499153.77,41849,9.0,71810.3,-9.95,-11.59,-11.59,0,*55
1483499155.05,41850,9.06,71800.0,-9.95,-11.63,-11.59,0,*54
1483499156.31,41851,9.0,71814.3,-9.97,-11.63,-11.59,0,*57
1483499157.57,41852,9.0,71798.3,-9.97,-11.51,-11.59,0,*55
1483499158.85,41853,9.06,71810.3,-9.95,-11.59,-11.59,0,*5E
1483499160.13,41854,9.0,71812.8,-9.95,-11.59,-11.73,0,*51
1483499161.38,41855,9.06,71818.3,-9.97,-11.73,-11.81,0,*57
1483499162.64,41856,9.0,71812.8,-9.97,-11.63,-11.81,0,*55
1483499163.9,41857,9.06,71810.3,-9.97,-11.93,-12.15,0,*55
1483499165.11,41858,9.06,71802.0,-9.97,-12.03,-12.29,0,*5F
1483499166.34,41859,9.06,71804.5,-9.95,-12.03,-12.47,0,*54
1483499167.56,41860,9.06,71792.3,-9.97,-12.21,-12.43,0,*58
1483499168.77,41861,9.0,71798.0,-9.97,-12.47,-12.43,0,*59
1483499170.01,41862,9.06,71808.0,-9.97,-12.57,-12.43,0,*5B
1483499171.24,41863,9.06,71848.8,-9.97,-12.47,-12.15,0,*58
1483499172.45,41864,9.0,71822.3,-9.97,-12.43,-12.03,0,*5C
1483499173.66,41865,9.0,71824.8,-9.97,-12.29,-12.03,0,*51
1483499174.92,41866,9.0,71818.0,-9.97,-12.15,-11.81,0,*54
1483499176.2,41867,9.0,71812.8,-9.95,-11.89,-11.77,0,*58
1483499177.48,41868,9.0,71782.8,-9.95,-11.81,-11.63,0,*5A
1483499178.75,41869,9.0,71774.0,-9.97,-11.89,-11.63,0,*51
1483499180.0,41870,9.0,71758.0,-9.97,-11.77,-11.73,0,*59
1483499181.27,41871,9.06,71766.5,-9.97,-11.81,-11.63,0,*50
1483499182.53,41872,9.0,71784.3,-9.97,-11.73,-11.63,0,*5E
1483499183.79,41873,9.0,71768.0,-9.97,-11.63,-11.51,0,*5F
1483499185.03,41874,9.0,71794.3,-9.97,-11.63,-11.45,0,*5D
1483499186.28,41875,9.06,71806.3,-9.97,-11.51,-11.37,0,*58
1483499187.52,41876,9.0,71808.5,-9.97,-11.45,-11.37,0,*5E
1483499188.75,41877,9.06,71822.8,-9.97,-11.51,-11.45,0,*5F
1483499189.99,41878,9.06,71824.3,-9.97,-11.45,-11.37,0,*50
1483499191.23,41879,9.06,71826.8,-9.97,-11.45,-11.37,0,*51
1483499192.45,41880,9.06,71828.0,-9.97,-11.45,-11.45,0,*52
1483499193.73,41881,9.06,71828.3,-9.95,-11.59,-11.59,0,*51
1483499194.99,41882,9.0,71846.0,-9.97,-11.59,-11.59,0,*50
1483499196.22,41883,9.0,71838.5,-9.97,-11.51,-11.45,0,*54
1483499197.51,41884,9.0,71832.3,-9.99,-11.55,-11.51,0,*5C
1483499198.75,41885,9.06,71846.5,-9.97,-11.59,-11.45,0,*5A
1483499200.0,41886,9.06,71792.0,-9.97,-11.51,-11.51,0,*54
1483499201.26,41887,9.06,71810.0,-9.97,-11.59,-11.59,0,*55
1483499202.51,41888,9.0,71812.5,-9.97,-11.73,-11.77,0,*5E
1483499203.78,41889,9.06,71820.0,-9.97,-11.89,-12.07,0,*5E
1483499205.03,41890,9.06,71804.3,-9.95,-12.03,-12.07,0,*55
1483499206.27,41891,9.06,71802.5,-9.97,-12.29,-12.35,0,*5F
1483499207.53,41892,9.06,71806.8,-9.97,-12.61,-12.61,0,*51
1483499208.79,41893,9.06,71818.3,-9.97,-12.79,-12.79,0,*50
1483499210.02,41894,9.06,71830.3,-9.97,-12.89,-12.65,0,*55
1483499211.27,41895,9.06,71840.0,-9.95,-12.89,-12.65,0,*56
1483499212.51,41896,9.0,71826.8,-9.97,-12.89,-12.57,0,*56
1483499213.79,41897,9.0,71818.3,-9.95,-13.01,-12.57,0,*54
1483499215.0,41898,9.06,71832.3,-9.97,-12.89,-12.21,0,*59
1483499216.28,41899,9.06,71826.5,-9.95,-12.61,-12.07,0,*58
1483499217.54,41900,9.0,71780.8,-9.97,-12.65,-11.89,0,*5A
1483499218.82,41901,9.06,71792.8,-9.95,-12.35,-11.73,0,*59
1483499220.11,41902,9.0,71806.0,-9.95,-12.15,-11.63,0,*59
1483499221.37,41903,9.06,71806.5,-9.97,-11.89,-11.59,0,*55
1483499222.65,41904,9.0,71796.0,-9.95,-11.81,-11.59,0,*58
1483499223.93,41905,9.0,71800.5,-9.95,-11.77,-11.59,0,*50
1483499225.18,41906,9.06,71800.3,-9.97,-11.73,-11.59,0,*55
1483499226.44,41907,9.0,71798.0,-9.97,-11.63,-11.51,0,*5D
1483499227.7,41908,9.06,71804.5,-9.95,-11.63,-11.45,0,*55
1483499228.95,41909,9.06,71806.8,-9.95,-11.51,-11.45,0,*55
1483499230.21,41910,9.06,71804.8,-9.95,-11.59,-11.45,0,*55
1483499231.47,41911,9.06,71802.0,-9.95,-11.59,-11.45,0,*54
1483499232.73,41912,9.0,71802.8,-9.95,-11.59,-11.45,0,*57
1483499234.01,41913,9.06,71806.8,-9.95,-11.63,-11.37,0,*5A
1483499235.28,41914,9.06,71808.3,-9.95,-11.51,-11.33,0,*58
1483499236.53,41915,9.06,71810.8,-9.97,-11.51,-11.33,0,*5B
1483499237.75,41916,9.0,71810.5,-9.97,-11.45,-11.23,0,*5C
1483499239.0,41917,9.06,71810.3,-9.95,-11.37,-11.23,0,*5A
1483499240.23,41918,9.0,71802.8,-9.97,-11.37,-11.19,0,*5E
1483499241.49,41919,9.0,71798.0,-9.95,-11.37,-11.23,0,*54
1483499242.74,41920,9.0,71790.5,-9.95,-11.45,-11.33,0,*5A
1483499244.0,41921,9.0,71798.3,-9.95,-11.45,-11.33,0,*5B
1483499245.26,41922,9.06,71810.3,-9.95,-11.45,-11.33,0,*58
1483499246.53,41923,9.06,71810.0,-9.95,-11.51,-11.37,0,*58
1483499247.79,41924,9.06,71804.8,-9.95,-11.59,-11.45,0,*52
1483499249.05,41925,9.0,71806.3,-9.95,-11.59,-11.45,0,*53
1483499250.33,41926,9.0,71812.0,-9.95,-11.59,-11.37,0,*55
1483499251.59,41927,9.06,71816.8,-9.95,-11.45,-11.37,0,*59
1483499252.84,41928,9.0,71816.5,-9.95,-11.45,-11.33,0,*52
1483499254.1,41929,9.0,71820.8,-9.95,-11.59,-11.45,0,*5F
1483499255.36,41930,9.0,71820.8,-9.95,-11.59,-11.45,0,*57
1483499256.62,41931,9.06,71822.8,-9.95,-11.59,-11.45,0,*56
1483499257.9,41932,9.0,71812.8,-9.95,-11.51,-11.59,0,*50
1483499259.17,41933,9.06,71814.8,-9.95,-11.73,-11.51,0,*59
1483499260.45,41934,9.06,71824.0,-9.95,-11.81,-11.63,0,*52
1483499261.74,41935,9.0,71824.3,-9.95,-11.77,-11.63,0,*5A
1483499263.02,41936,9.0,71808.8,-9.95,-11.81,-11.59,0,*59
1483499264.3,41937,9.0,71814.5,-9.95,-11.63,-11.51,0,*5C
1483499265.56,41938,9.0,71812.5,-9.95,-11.63,-11.45,0,*56
1483499266.84,41939,9.0,71824.5,-9.95,-11.63,-11.59,0,*5A
1483499268.1,41940,9.0,71808.5,-9.91,-11.55,-11.45,0,*58
1483499269.38,41941,9.0,71788.5,-9.95,-11.63,-11.51,0,*5D
1483499270.66,41942,9.0,71780.8,-9.95,-11.51,-11.51,0,*5F
1483499271.94,41943,9.0,71780.5,-9.95,-11.59,-11.51,0,*56
1483499273.2,41944,9.06,71796.0,-9.97,-11.59,-11.59,0,*5B
1483499274.48,41945,9.0,71790.0,-9.95,-11.63,-11.51,0,*59
1483499275.74,41946,9.0,71796.0,-9.95,-11.63,-11.45,0,*5F
1483499277.02,41947,9.0,71782.5,-9.95,-11.63,-11.37,0,*5B
1483499278.3,41948,9.0,71774.0,-9.95,-11.59,-11.51,0,*5D
1483499279.56,41949,9.0,71768.8,-9.95,-11.59,-11.45,0,*59
1483499280.81,41950,9.06,71774.0,-9.95,-11.59,-11.45,0,*51
1483499282.09,41951,9.0,71760.8,-9.95,-11.59,-11.37,0,*55
1483499283.35,41952,9.06,71764.5,-9.97,-11.51,-11.33,0,*58
1483499284.6,41953,9.0,71770.8,-9.95,-11.51,-11.23,0,*5A
1483499285.85,41954,9.0,71784.8,-9.95,-11.37,-11.19,0,*54
1483499287.09,41955,9.0,71748.8,-9.91,-11.41,-11.19,0,*50
1483499288.37,41956,9.0,71770.3,-9.91,-11.33,-11.29,0,*55
1483499289.64,41957,9.0,71784.3,-9.95,-11.37,-11.33,0,*5F
1483499290.92,41958,9.0,71774.8,-9.95,-11.37,-11.33,0,*50
1483499292.17,41959,9.06,71786.0,-9.95,-11.37,-11.45,0,*50
1483499293.41,41960,9.0,71778.8,-9.97,-11.45,-11.51,0,*58
1483499294.67,41961,9.0,71786.3,-9.97,-11.59,-11.59,0,*5C
1483499295.95,41962,9.06,71794.5,-9.95,-11.51,-11.51,0,*5D
1483499297.23,41963,9.0,71784.3,-9.95,-11.59,-11.59,0,*5C
1483499298.51,41964,9.0,71774.5,-9.95,-11.73,-11.73,0,*5B
1483499299.79,41965,9.0,71760.8,-9.95,-11.63,-11.81,0,*56
1483499301.04,41966,9.06,71776.8,-9.95,-11.81,-12.21,0,*50
1483499302.25,41967,9.0,71788.3,-9.97,-12.03,-12.47,0,*5A
1483499303.51,41968,9.0,71800.3,-9.95,-12.21,-12.61,0,*53
1483499304.79,41969,9.0,71810.0,-9.95,-12.65,-13.01,0,*55
1483499306.07,41970,9.06,71788.0,-9.95,-13.01,-13.33,0,*5F
1483499307.32,41971,9.0,71796.0,-9.95,-13.43,-13.87,0,*57
1483499308.58,41972,9.0,71802.8,-9.95,-14.05,-14.33,0,*59
1483499309.87,41973,9.0,71802.5,-9.95,-14.43,-14.51,0,*5E
1483499311.1,41974,9.06,71820.8,-9.95,-14.89,-14.61,0,*5C
1483499312.35,41975,9.06,71816.8,-9.97,-15.01,-14.79,0,*57
1483499313.61,41976,9.0,71818.0,-9.95,-15.29,-14.93,0,*58
1483499314.84,41977,9.0,71814.5,-9.95,-15.53,-14.65,0,*5D
1483499316.1,41978,9.0,71796.3,-9.95,-15.53,-14.51,0,*55
1483499317.33,41979,9.0,71790.3,-9.95,-15.15,-14.23,0,*53